This is the latest recevied weather packets stored in our database for station/object PERPET. If no packets are shown the sender has not sent any weather packets the latest 10 day(s).
| Time | Temp. | Humidity | Pressure | Rain* | Wind** | Luminosity | Snow |
|---|---|---|---|---|---|---|---|
| 1777409540 | 10.56° C | - | 1024.6 hPa | 0 mm | - | - | - |
| 1777408639 | 11.11° C | - | 1024.8 hPa | 0 mm | - | - | - |
| 1777408040 | 11.11° C | - | 1024.9 hPa | 0 mm | - | - | - |
| 1777407439 | 10.56° C | - | 1025 hPa | 0 mm | - | - | - |
| 1777407139 | 10.56° C | - | 1025 hPa | 0 mm | - | - | - |
| 1777406540 | 10.56° C | - | 1025.2 hPa | 0 mm | - | - | - |
| 1777405940 | 10.56° C | - | 1025 hPa | 0 mm | - | - | - |
| 1777405039 | 9.44° C | - | 1024.9 hPa | 0 mm | - | - | - |
| 1777404439 | 9.44° C | - | 1024.9 hPa | 0 mm | - | - | - |
| 1777404139 | 9.44° C | - | 1024.9 hPa | 0 mm | - | - | - |
| 1777403839 | 9.44° C | - | 1024.9 hPa | 0 mm | - | - | - |
| 1777403539 | 9.44° C | - | 1024.9 hPa | 0 mm | - | - | - |
| 1777402939 | 9.44° C | - | 1025 hPa | 0 mm | - | - | - |
| 1777402640 | 9.44° C | - | 1025 hPa | 0 mm | - | - | - |
| 1777401439 | 8.89° C | - | 1024.9 hPa | 0 mm | - | - | - |
| 1777401139 | 8.89° C | - | 1024.9 hPa | 0 mm | - | - | - |
| 1777400839 | 9.44° C | - | 1024.8 hPa | 0 mm | - | - | - |
| 1777400239 | 9.44° C | - | 1024.7 hPa | 0 mm | - | - | - |
| 1777399939 | 9.44° C | - | 1024.6 hPa | 0 mm | - | - | - |
| 1777399639 | 10° C | - | 1024.5 hPa | 0 mm | - | - | - |
| 1777399339 | 10° C | - | 1024.5 hPa | 0 mm | - | - | - |
| 1777397539 | 9.44° C | - | 1024.4 hPa | 0 mm | - | - | - |
| 1777397238 | 9.44° C | - | 1024.6 hPa | 0 mm | - | - | - |
| 1777393939 | 9.44° C | - | 1024.2 hPa | 0 mm | - | - | - |
| 1777393638 | 9.44° C | - | 1024.2 hPa | 0 mm | - | - | - |
* Rain latest hour (hover to see other rain measurements)
** Current wind speed in m/s (hover to see current wind gust speed)